SCP
0 0 0 0 0 0 0 0 0 0 0 0 0 0 0 0 0 0 0 0 0 0 0 0 0 1 0 0 0 0 0 0 0 0 0 0 0 0 0 0 0 0 0 0 0 0 0 0 0
0 0 0 0 0 0 0 0 0 0 0 0 0 0 0 0 0 0 0 0 0 0 0 0 0 1 1 0 0 0 0 0 0 0 0 0 0 0 0 0 0 0 0 0 0 0 0 0 0
0 0 0 0 0 0 0 0 0 0 0 0 0 0 0 0 0 0 0 0 0 0 0 0 1 1 1 0 0 0 0 0 0 0 0 0 0 0 0 0 0 0 0 0 0 0 0 0 0
0 0 0 0 0 0 0 0 0 0 0 0 0 0 0 0 0 0 0 0 0 0 0 0 1 1 1 0 0 0 0 0 0 0 0 0 0 0 0 0 0 0 0 0 0 0 0 0 0
0 0 0 0 0 0 0 0 0 0 0 0 0 0 0 0 0 0 0 0 0 0 0 0 1 1 1 0 0 0 0 0 0 0 0 0 0 0 0 0 0 0 0 0 0 0 0 0 0
0 0 0 0 0 0 0 0 0 0 0 0 0 0 0 0 0 0 0 0 0 0 0 0 1 1 1 1 0 0 0 0 0 0 0 0 0 0 0 0 0 0 0 0 0 0 0 0 0
0 0 0 0 0 0 0 0 0 0 0 0 0 0 0 0 0 0 0 0 0 0 0 0 0 1 1 1 0 0 0 0 0 0 0 0 0 0 0 0 0 0 0 0 0 0 0 0 0
0 0 0 0 0 0 0 0 0 0 0 0 0 0 0 0 0 0 0 0 0 0 0 0 0 0 1 0 0 0 0 0 0 0 0 0 0 0 0 0 0 0 0 0 0 0 0 0 0
0 0 0 0 0 0 0 0 0 0 0 0 0 0 0 0 0 0 0 0 0 0 0 0 0 0 0 0 0 0 0 0 0 0 0 0 0 0 0 0 0 0 0 0 0 0 0 0 0
0 0 0 0 0 0 0 0 0 0 0 0 0 0 0 0 0 0 0 0 0 1 1 1 1 0 0 0 0 0 0 0 0 0 0 0 0 0 0 0 0 0 0 0 0 0 0 0 0
0 0 0 0 0 0 0 0 0 0 0 0 0 0 0 0 0 0 0 0 0 1 1 1 1 1 0 0 0 0 0 0 0 0 0 0 0 0 0 0 0 0 0 0 0 0 0 0 0
0 0 0 0 0 0 0 0 0 0 0 0 0 0 0 0 0 0 0 0 0 1 1 1 1 1 1 0 0 0 0 0 0 0 0 0 0 0 0 0 0 0 0 0 0 0 0 0 0
0 0 0 0 0 0 0 0 0 0 0 0 0 0 0 0 0 0 0 0 0 1 1 1 1 1 1 0 0 0 0 0 0 0 0 0 0 0 0 0 0 0 0 0 0 0 0 0 0
0 0 0 0 0 0 0 0 0 0 0 0 0 0 0 0 0 0 0 0 0 0 1 1 2 1 1 1 0 0 0 0 0 0 0 0 0 0 0 0 0 0 0 0 0 0 0 0 0
0 0 0 0 0 0 0 0 0 0 0 0 0 0 0 0 0 0 0 0 0 0 0 1 1 1 1 1 0 0 0 0 0 0 0 0 0 0 0 0 0 0 0 0 0 0 0 0 0
0 0 0 0 0 0 0 0 0 0 0 0 0 0 0 0 0 0 0 0 0 0 0 0 1 1 1 1 0 0 0 0 0 0 0 0 0 0 0 0 0 0 0 0 0 0 0 0 0
0 0 0 0 0 0 0 0 0 0 0 0 0 0 0 0 0 0 0 0 0 0 0 0 1 1 1 0 0 0 0 0 0 0 0 0 0 0 0 0 0 0 0 0 0 0 0 0 0
0 0 0 0 0 0 0 0 0 0 0 0 0 0 0 0 0 0 0 0 0 0 0 0 0 0 0 0 0 0 0 0 0 0 0 0 0 0 0 0 0 0 0 0 0 0 0 0 0
0 0 0 0 0 0 0 0 0 0 0 0 0 0 0 0 0 0 0 0 0 0 0 0 0 0 0 0 0 0 0 0 0 0 0 0 0 0 0 0 0 0 0 0 0 0 0 0 0
0 0 0 0 0 0 0 0 0 0 0 0 0 0 0 0 0 0 0 0 0 0 0 0 0 0 0 0 0 0 0 0 0 0 0 0 0 0 0 0 0 0 0 0 0 0 0 0 0
0 0 0 0 0 0 0 0 0 0 0 0 0 0 0 0 0 0 0 0 0 0 0 0 0 0 0 0 0 0 0 0 0 0 0 0 0 0 0 0 0 0 0 0 0 0 0 0 0
0 0 0 0 0 0 0 0 0 0 0 0 0 0 0 0 0 0 0 0 0 0 0 0 0 0 0 0 0 0 0 0 0 0 0 0 0 0 0 0 0 0 0 0 0 0 0 0 0
0 0 0 0 0 0 0 0 0 -0 0 0 0 0 0 0 0 0 0 0 0 0 0 0 0 0 0 0 0 0 0 0 0 0 0 0 0 0 0 0 0 0 0 0 0 0 0 0 0
0 0 0 0 0 0 0 0 0 0 0 0 0 0 0 0 0 0 0 0 0 0 0 0 0 0 0 0 0 0 0 0 0 0 0 0 0 0 0 0 0 0 0 0 0 0 0 0 0
0 0 0 0 0 0 0 0 0 0 -0 -0 0 0 0 0 0 0 0 0 0 0 0 0 0 0 0 0 0 0 0 0 0 0 0 0 0 0 0 0 0 0 0 0 0 0 0 0 0
0 0 0 0 0 0 0 0 0 0 0 0 0 0 0 0 0 0 0 0 0 0 0 0 0 0 0 0 0 0 0 0 0 0 0 0 0 0 0 0 0 0 0 0 0 0 0 0 0
0 0 0 0 0 0 0 0 0 0 0 0 0 0 0 0 0 0 0 0 0 0 0 0 0 0 0 0 0 0 0 0 0 0 0 0 0 0 0 0 0 0 0 0 0 0 0 0 0
0 0 0 0 0 0 0 0 0 0 0 0 0 0 0 0 0 0 0 0 0 0 0 0 0 0 0 0 0 0 0 0 0 0 0 0 0 0 0 0 0 0 0 0 0 0 0 0 0
0 0 0 0 0 0 0 0 0 0 0 0 0 0 0 0 0 0 0 0 0 0 0 0 0 0 0 0 0 0 0 0 0 0 0 0 0 0 0 0 0 0 0 0 0 0 0 0 0
0 0 0 0 0 0 0 0 0 0 0 0 0 0 0 0 0 0 0 0 0 0 0 0 0 0 0 0 0 0 0 0 0 0 0 0 0 0 0 0 0 0 0 0 0 0 0 0 0
Wind_Speed
12 6 3 5 7 5 3 5 3 4 3 2 2 2 3 4 5 4 0 8 6 8 10 11 15 16 15 14 12 10 8 8 7 9 10 9 7 6 5 4 3 3 4 4 4 4 5 6 6
5 4 6 6 5 0 6 5 3 4 4 4 0 2 1 3 2 1 2 6 6 10 9 9 14 16 16 14 13 11 9 8 8 8 8 7 7 6 5 4 4 4 4 4 4 4 4 4 4
3 5 5 5 4 6 5 3 3 6 7 3 1 1 2 3 2 3 3 7 7 9 8 9 14 16 16 15 13 11 10 9 8 7 6 6 6 7 6 5 4 3 3 3 4 3 3 3 2
4 5 5 3 6 6 6 4 4 8 7 3 1 1 2 2 2 2 6 9 8 7 7 9 14 15 15 15 13 12 10 9 8 8 6 5 5 6 7 6 5 4 3 2 2 1 1 1 3
4 4 1 3 7 5 5 5 3 5 5 4 1 1 2 2 2 4 9 9 9 7 6 7 14 14 15 14 13 12 10 9 9 8 7 6 4 5 6 7 7 5 4 2 1 2 3 4 5
4 4 3 6 8 4 4 3 3 4 5 4 2 2 3 0 3 4 7 8 8 8 7 7 13 12 14 14 13 12 11 9 9 8 8 6 3 4 3 7 7 5 4 4 4 5 6 7 7
4 4 5 6 5 6 5 4 4 4 4 4 3 3 4 2 4 5 5 6 6 6 6 6 7 9 12 12 12 12 11 9 8 8 7 4 2 3 1 4 5 5 5 5 6 7 8 8 8
4 4 4 5 6 7 3 2 2 3 5 3 3 4 4 3 6 7 5 4 4 5 5 6 5 6 6 7 10 11 9 8 8 7 5 4 1 2 2 1 3 4 5 6 7 8 8 8 8
4 3 6 6 6 5 2 2 3 3 3 3 2 4 2 3 8 8 4 3 3 5 5 5 5 5 6 6 7 8 8 8 7 5 5 4 1 2 3 3 4 4 6 7 8 8 9 9 9
4 5 7 5 4 3 3 2 4 5 5 4 4 3 2 3 6 7 7 8 9 9 8 6 7 6 5 6 4 4 4 4 4 3 3 2 1 1 2 4 5 5 5 5 7 9 10 9 5
5 5 3 4 4 4 5 4 3 3 5 4 4 6 4 2 5 7 7 7 10 8 8 9 9 8 7 4 4 3 3 3 3 4 3 2 2 1 1 1 2 3 4 4 6 7 6 5 5
3 4 3 3 3 4 6 5 5 7 9 6 4 5 5 5 7 8 9 8 6 6 9 9 10 9 8 6 4 4 3 3 3 3 4 3 2 2 2 2 3 3 3 4 5 4 5 5 5
4 4 4 5 7 6 7 8 8 8 9 9 8 7 8 8 9 8 7 6 6 8 10 11 11 11 9 7 4 5 4 4 3 3 3 4 3 3 4 3 4 5 4 4 4 4 4 5 5
2 2 4 4 5 5 7 12 9 9 7 8 8 9 10 10 11 8 8 9 8 10 12 12 13 13 10 8 6 5 4 4 4 3 4 5 5 5 5 5 5 4 4 4 4 4 4 4 3
1 3 5 6 7 6 6 15 13 11 10 12 12 11 12 12 10 10 11 10 11 10 10 11 13 12 12 10 8 5 5 5 4 4 6 7 7 7 6 5 5 4 4 4 4 4 4 4 4
1 2 4 4 5 7 8 18 5 8 11 12 11 11 12 13 12 11 10 11 10 8 7 9 11 12 12 9 7 5 6 6 5 6 7 9 8 8 7 6 5 4 3 3 4 4 4 4 4
3 4 4 4 4 4 8 10 4 5 7 10 10 9 10 11 12 10 9 9 8 7 6 8 10 12 11 9 8 7 7 6 6 6 7 8 8 8 8 6 4 4 4 4 4 4 4 4 5
5 5 4 4 3 4 8 13 10 9 10 10 10 9 9 9 12 9 7 6 5 4 5 7 9 11 12 10 9 8 8 6 6 6 8 9 8 9 8 6 5 4 5 5 4 5 4 3 4
2 4 7 5 5 7 13 19 14 10 11 12 12 11 10 10 9 6 5 4 4 3 6 8 11 12 12 11 9 8 7 6 6 6 8 9 9 8 7 6 5 5 5 5 4 3 5 5 4
8 11 11 9 7 9 14 24 18 13 16 16 16 16 13 10 6 5 5 5 5 5 6 8 11 11 11 9 6 5 6 6 6 6 7 7 8 8 7 7 5 5 5 6 6 5 3 3 4
10 11 9 8 6 7 12 21 15 13 17 19 17 16 15 13 11 9 8 7 6 6 8 9 10 10 10 11 11 10 7 6 5 6 5 5 7 8 7 7 6 6 5 5 5 5 4 3 3
11 8 11 10 8 6 5 13 6 7 10 12 13 12 13 12 11 9 9 8 8 7 7 9 10 11 12 13 15 16 11 8 5 5 5 6 7 7 7 7 7 6 5 5 4 4 3 3 2
7 5 9 9 9 10 7 12 12 6 9 9 10 12 13 12 12 12 13 12 8 7 8 9 10 10 11 10 15 14 10 8 8 8 8 7 6 6 6 6 6 6 5 5 4 4 3 2 1
5 3 6 6 7 14 12 11 15 7 9 8 12 12 13 12 12 12 10 8 7 7 8 10 11 10 8 10 11 14 16 16 13 10 8 6 5 5 6 6 6 5 4 4 4 3 3 1 0
8 7 5 7 9 9 8 12 15 7 9 11 13 13 12 10 10 11 12 13 12 12 11 11 12 10 8 10 10 12 15 15 15 11 9 7 4 4 5 5 5 4 4 4 3 2 2 1 1
13 12 9 6 6 5 7 14 11 9 11 11 12 11 9 8 9 12 15 15 15 15 13 13 13 11 9 10 10 10 11 9 8 8 8 6 5 4 5 5 5 5 4 3 3 1 2 1 2
8 12 9 6 6 7 9 10 10 6 8 11 12 12 10 9 11 13 14 14 15 15 14 14 14 11 10 10 11 11 10 11 10 9 7 6 5 5 6 5 5 4 3 3 2 1 2 2 2
8 6 6 9 7 9 9 9 9 6 7 9 11 13 12 9 11 13 13 13 12 12 10 11 12 13 11 10 10 10 10 11 11 10 9 7 6 6 6 5 4 3 3 3 2 2 2 3 3
12 11 10 7 6 6 7 10 6 5 3 6 10 11 11 11 14 14 12 11 12 12 12 12 12 13 11 10 10 12 11 11 10 9 8 7 6 6 6 5 4 3 3 3 2 3 3 4 5
14 15 15 10 9 7 7 12 3 3 3 8 11 10 6 7 10 12 12 13 13 13 13 12 12 13 11 11 12 12 11 11 10 9 7 7 7 6 5 5 4 3 3 3 3 4 5 5 6
Wind_Direction
333 340 42 51 48 46 265 254 246 281 269 256 234 211 188 189 176 199 198 157 144 148 165 175 164 161 157 154 152 151 152 149 149 149 143 138 137 136 139 131 112 78 57 56 62 57 60 59 54
331 358 47 56 86 337 269 253 260 264 289 306 235 116 307 270 276 149 163 171 151 152 158 163 166 163 160 157 156 157 157 155 156 155 150 146 148 155 154 143 122 86 67 67 72 68 64 58 42
4 47 73 77 142 190 237 242 252 292 295 283 127 134 213 252 258 211 195 157 141 149 151 161 166 166 163 161 161 162 162 161 162 159 159 163 171 178 173 161 140 108 87 83 87 81 67 48 20
48 42 58 99 222 220 228 258 303 320 324 323 171 159 248 259 257 204 138 142 140 147 148 160 165 169 167 166 166 167 168 168 168 166 168 179 199 207 200 185 166 153 146 129 107 91 40 333 316
59 77 72 251 241 240 245 260 279 305 295 304 232 191 271 334 21 120 137 145 150 151 153 164 169 175 172 171 171 172 174 175 177 180 183 195 217 239 227 197 181 181 191 213 263 308 320 317 313
61 81 155 235 249 254 259 251 281 282 276 283 193 175 269 2 117 156 149 150 157 159 162 168 177 178 176 176 175 177 178 179 183 190 196 203 235 293 243 187 186 199 221 251 281 307 317 316 316
121 131 203 226 255 260 244 213 221 251 270 263 193 163 279 293 147 159 152 140 153 162 165 173 178 178 177 176 178 181 182 182 184 190 196 195 229 336 97 169 194 216 246 275 297 315 321 321 322
138 137 214 222 231 260 252 223 238 234 258 267 171 174 238 249 129 130 133 129 153 170 177 176 176 172 169 173 179 181 182 182 183 185 178 166 184 357 24 191 227 246 274 297 312 323 329 337 343
105 138 219 214 203 247 279 279 307 311 289 301 241 225 271 113 117 113 125 155 170 190 192 181 178 174 166 167 180 179 180 183 181 177 168 157 127 353 350 316 291 292 304 321 336 354 14 24 25
138 204 229 205 202 248 316 310 309 336 335 318 310 296 344 137 149 152 169 189 196 199 196 188 187 181 172 178 170 166 167 173 163 148 150 144 133 347 323 319 321 329 347 6 27 43 44 44 34
173 216 245 247 258 278 290 284 274 272 273 251 269 303 326 232 193 189 194 200 206 201 198 196 195 189 181 177 163 161 157 161 162 158 157 141 120 42 7 31 23 33 50 56 57 54 46 43 38
203 228 240 274 304 289 277 278 272 232 239 258 271 290 308 267 229 212 211 214 200 194 201 198 196 194 188 179 171 165 162 167 170 167 158 138 115 91 82 76 69 63 64 68 61 59 49 44 40
232 254 259 275 290 279 278 266 264 250 252 272 287 288 275 264 253 247 241 237 202 206 207 198 194 196 189 179 174 170 173 174 171 156 155 144 132 116 96 81 71 65 61 66 68 62 54 43 36
238 281 297 286 280 277 264 267 253 250 245 262 267 267 263 253 245 247 251 250 231 220 216 200 194 191 183 181 178 175 168 155 147 155 159 148 133 120 107 93 79 71 68 70 72 64 51 42 34
238 289 290 250 240 242 259 267 240 242 239 249 251 250 256 254 244 232 232 235 237 232 222 201 194 183 180 180 177 164 152 146 147 145 138 129 122 118 110 98 86 75 69 68 64 55 44 35 25
263 258 272 272 233 224 212 262 264 225 226 241 242 239 243 249 245 237 235 239 243 234 216 197 187 179 176 170 156 143 143 138 134 126 119 116 115 115 106 97 87 77 69 65 62 39 36 23 9
243 243 238 273 248 251 226 264 288 256 244 253 252 246 243 249 257 252 242 239 238 222 200 180 171 168 161 144 131 123 122 118 118 115 110 110 109 108 103 97 91 84 69 52 55 46 39 21 356
222 228 237 239 297 323 277 273 282 296 285 273 268 261 253 248 253 259 250 233 217 198 172 156 146 146 137 126 117 110 103 101 100 103 107 111 109 107 104 97 88 82 71 52 47 50 37 27 351
251 266 269 269 309 311 279 279 276 266 269 270 270 266 257 250 254 256 234 206 181 162 146 145 144 147 144 140 134 127 119 112 100 98 103 108 110 107 102 99 86 78 76 63 47 47 33 16 1
248 262 269 278 263 275 280 279 274 250 253 255 256 260 258 253 252 232 209 194 194 175 154 147 151 153 150 141 126 115 117 106 96 96 96 104 107 104 100 99 95 88 85 65 50 47 42 14 23
235 243 253 262 303 279 289 284 259 238 234 242 243 242 244 239 235 219 205 203 196 186 169 156 151 145 137 129 118 113 103 102 104 104 96 91 97 95 98 99 98 87 85 78 64 55 61 20 3
249 226 232 246 255 265 235 284 259 230 243 244 244 239 236 232 222 207 196 197 196 185 161 149 148 145 145 142 141 144 145 143 140 130 117 98 89 93 95 95 91 86 81 77 67 66 63 58 13
232 221 223 230 236 255 233 268 276 205 246 249 247 241 234 226 213 202 196 194 178 159 152 148 144 147 151 150 150 145 136 123 122 118 111 98 86 86 89 88 85 82 79 77 66 59 52 65 77
217 266 262 241 239 255 221 228 272 201 226 236 243 240 234 223 209 200 184 157 147 149 148 147 146 148 150 148 148 143 138 136 135 131 121 108 96 83 83 84 83 82 77 70 60 54 45 40 16
192 215 237 222 221 247 177 212 254 213 214 220 236 243 238 223 199 180 165 162 162 161 158 153 150 146 145 143 139 142 141 141 141 138 130 124 112 97 89 87 82 75 69 68 59 46 18 348 321
193 199 215 229 232 263 212 234 254 232 229 233 238 242 240 215 189 181 178 173 169 166 161 156 151 145 142 138 129 125 126 125 125 123 123 118 114 113 107 94 83 74 65 61 50 30 337 328 307
193 209 218 251 250 260 249 264 289 252 252 254 254 250 239 210 188 183 178 173 168 164 162 157 148 141 136 132 126 122 119 121 120 113 105 107 110 110 100 92 83 70 58 44 28 351 319 313 288
209 180 185 216 237 245 256 255 252 268 278 282 273 259 244 212 189 180 175 168 161 153 142 138 140 137 131 128 129 124 118 116 116 113 111 109 104 100 98 88 78 61 43 20 4 327 312 311 293
197 208 215 222 217 219 258 258 218 223 263 302 301 282 248 206 186 176 165 152 141 136 135 133 131 129 127 123 120 118 114 112 109 109 110 110 104 101 95 87 73 53 31 3 353 326 314 311 302
208 213 209 221 225 216 243 261 209 233 314 339 327 315 278 195 167 153 143 138 138 136 133 132 132 128 125 123 118 114 113 111 109 109 109 108 104 98 93 83 69 44 15 353 343 324 320 309 304